Location: ?????????
(54.7630°N, 39.4991°E)
Time: 16:57:51
(UTC+00:00)

ARIANE 6 FM1 Upper Stage - Pass Details

Date: 14 April 2026
Orbit: 526 x 602 km, 62.0° (Epoch: 16 May)

Event Time Altitude Azimuth Distance (km) Brightness Sun altitude
Rises 18:20:06 0° 260° (W) 2,714 6.7 -15.2°
Reaches altitude 10° 18:22:25 10° 268° (W) 1,811 5.9 -15.4°
Maximum altitude 18:26:16 40° 339° (NNW) 802 4.0 -15.8°
Drops below altitude 10° 18:30:05 10° 50° (NE) 1,787 5.2 -16.2°
Sets 18:32:22 0° 58° (ENE) 2,674 6.0 -16.4°
